Temp
67 65 61 57 47 41 39 46 49 54 55 64 63 63 63 65 62 55 68 75 74 74 76 76 77 77 78 78 78 77 77 78 78 78 78 79 79 78 79 79 79 78 78 79 79 78 78 78 77
64 67 58 48 39 33 38 47 54 62 63 62 65 60 60 63 65 64 67 73 75 75 76 76 76 77 78 78 77 77 77 77 78 78 78 79 78 78 79 78 78 78 78 78 78 77 77 77 77
64 67 51 45 37 38 42 49 59 61 64 63 61 64 63 63 66 68 70 74 75 75 76 76 76 77 77 77 77 77 77 77 77 77 77 78 78 78 78 78 77 76 76 76 76 76 76 76 75
58 55 51 40 39 42 48 52 58 59 63 65 65 58 62 70 69 70 73 75 74 74 75 75 76 76 77 77 77 77 77 77 77 77 76 77 77 78 77 76 75 75 75 76 76 76 76 75 75
59 49 39 35 39 44 51 57 55 57 59 61 64 58 58 66 72 72 73 75 73 73 74 75 75 76 76 76 76 76 77 76 77 77 76 77 77 77 76 74 74 75 75 75 76 76 76 75 75
53 48 33 36 41 47 53 57 58 57 61 64 61 59 61 69 69 71 73 73 74 73 74 74 74 75 76 76 76 76 76 76 76 76 76 76 76 76 75 74 74 75 75 75 75 75 75 74 74
45 41 38 36 38 44 49 57 54 55 59 61 65 57 59 66 71 72 73 74 74 74 74 74 74 74 74 74 74 75 75 75 75 75 75 74 74 74 74 74 74 75 75 75 74 75 74 74 73
50 48 37 40 41 40 53 58 59 59 61 67 67 56 59 66 71 72 72 72 73 73 74 73 73 73 73 72 72 73 73 73 73 73 71 70 70 71 72 72 73 74 74 74 74 74 73 73 72
55 43 41 42 41 44 54 53 59 61 60 62 65 63 69 70 70 67 68 70 71 71 73 73 72 72 72 72 71 71 71 71 70 69 68 68 69 69 69 69 70 72 73 73 73 73 72 71 69
45 41 43 51 50 50 54 53 56 58 57 57 59 65 70 67 67 65 66 66 68 69 70 72 72 72 71 72 70 70 70 70 69 69 68 68 67 68 69 67 69 71 71 72 73 71 69 68 65
40 40 49 51 54 55 51 52 53 54 52 57 58 63 66 65 65 65 67 68 68 70 70 71 72 72 71 71 69 68 68 68 67 66 68 67 68 68 67 66 66 70 66 68 67 64 64 64 64
34 43 45 48 52 52 48 52 50 52 54 58 62 67 66 64 64 64 66 67 67 68 69 70 71 71 70 71 69 67 67 67 67 67 67 67 69 67 66 63 61 63 64 62 61 60 63 63 61
33 38 44 47 48 50 52 48 48 49 57 60 63 65 65 65 64 66 67 68 68 67 68 69 70 71 69 69 69 67 67 67 67 68 69 70 69 67 64 61 60 60 60 60 59 61 64 63 63
37 39 40 43 45 47 47 46 49 51 56 59 62 61 65 65 64 65 66 66 66 67 66 69 70 71 69 68 68 68 68 67 66 67 68 71 69 67 64 61 62 59 60 60 60 64 64 62 62
38 31 36 39 42 43 49 44 43 52 56 55 59 59 62 64 64 66 67 66 66 67 67 69 70 69 68 67 68 68 68 67 65 67 67 69 67 66 62 61 60 60 61 61 63 62 61 60 62
30 29 22 36 40 43 44 35 47 53 54 53 56 57 58 61 63 65 67 67 67 67 66 68 70 68 67 67 68 69 68 67 65 67 67 69 68 66 63 62 60 60 61 62 62 61 58 59 60
25 17 21 28 41 40 41 37 47 52 51 52 54 54 56 58 61 64 65 66 67 67 67 66 67 67 66 67 67 68 66 68 66 68 68 69 69 66 66 63 61 62 62 62 63 57 61 59 56
15 18 23 23 32 37 33 38 45 50 51 49 51 52 53 53 55 58 63 66 66 67 68 67 66 66 66 65 65 65 64 65 67 67 68 68 68 67 66 64 63 64 63 60 60 60 58 58 57
20 20 18 24 34 32 31 35 41 50 49 47 47 44 46 47 47 49 52 58 65 65 66 67 66 66 65 64 63 63 63 64 66 66 67 68 67 66 66 65 63 64 64 64 63 60 58 56 57
21 15 17 25 33 28 32 31 39 46 40 34 34 33 36 39 40 42 46 48 53 64 66 66 65 67 66 65 66 66 67 66 67 66 67 68 67 65 65 65 63 65 63 62 62 61 56 57 58
19 15 17 17 25 30 28 28 32 40 32 32 31 31 31 30 33 35 39 42 44 47 52 65 66 67 67 67 66 65 64 60 59 62 64 65 66 64 65 66 64 63 65 63 61 61 59 58 56
15 24 20 19 14 15 27 19 28 30 23 23 25 25 26 27 30 32 33 36 38 40 46 49 62 66 67 67 65 64 62 62 66 65 66 64 66 64 63 64 64 63 64 62 61 62 59 58 56
18 22 19 18 10 14 23 20 16 20 16 18 20 23 24 25 27 28 29 32 34 36 41 45 50 58 67 66 66 64 63 66 66 62 60 62 63 65 64 64 63 62 63 63 62 61 60 60 57
22 20 19 18 5 2 19 23 9 12 14 17 19 21 23 24 25 27 29 31 31 33 34 40 44 48 58 66 66 65 64 65 63 61 60 61 61 62 63 64 64 63 63 61 62 62 61 60 59
13 5 -7 -3 -1 1 21 10 9 15 17 18 18 19 22 23 23 24 25 26 28 29 31 34 38 41 43 54 65 66 65 65 63 62 62 61 60 60 61 63 63 63 64 64 64 63 62 60 60
7 -5 -3 -14 -9 5 15 5 9 18 20 21 21 20 22 22 23 23 24 25 26 27 28 30 33 38 39 41 53 66 65 65 65 64 64 63 62 62 62 63 63 63 62 63 63 62 62 60 59
4 -4 6 -1 4 5 7 9 16 19 17 18 18 20 19 21 22 22 24 24 25 26 27 28 29 35 36 37 40 50 65 64 65 65 65 64 64 63 61 62 62 61 62 62 62 62 61 60 59
6 3 -3 -3 -3 -3 2 3 2 9 13 16 16 17 19 21 21 22 23 23 25 26 27 29 29 30 34 36 38 41 47 60 66 65 64 65 63 63 60 61 62 61 61 61 62 60 60 60 58
0 -5 -6 -6 0 -3 -5 -5 9 10 13 14 16 18 19 19 21 21 22 23 24 26 26 27 28 28 30 33 35 37 40 45 52 65 65 65 64 62 61 62 61 61 61 61 61 60 60 60 59
-8 -6 -13 -9 -5 -4 -3 -6 11 14 15 16 16 19 20 21 21 22 22 22 23 24 25 26 27 27 28 30 34 34 37 39 42 46 64 66 64 63 62 62 62 62 62 61 61 59 60 59 58
MSLP
1014.35 1014.20 1014.41 1014.52 1015.57 1015.80 1014.52 1012.71 1011.08 1010.17 1009.38 1008.03 1007.78 1008.34 1008.31 1008.37 1009.38 1009.65 1007.69 1008.59 1008.58 1010.51 1011.60 1012.11 1012.70 1013.35 1013.77 1014.14 1014.50 1014.78 1015.02 1015.23 1015.56 1015.80 1015.88 1016.24 1016.58 1016.98 1017.12 1017.38 1017.57 1017.79 1018.12 1018.34 1018.48 1018.97 1019.15 1019.32 1019.48
1014.30 1014.26 1014.57 1015.33 1015.76 1015.60 1013.80 1011.77 1010.36 1008.75 1008.05 1007.66 1007.58 1008.25 1008.39 1008.60 1008.41 1008.69 1008.59 1009.08 1009.10 1010.31 1011.51 1012.12 1012.67 1013.34 1013.82 1014.34 1014.61 1014.96 1015.24 1015.48 1015.68 1015.97 1016.10 1016.32 1016.82 1017.23 1017.41 1017.72 1017.93 1018.17 1018.50 1018.88 1019.11 1019.42 1019.65 1019.82 1020.01
1014.60 1014.44 1015.03 1015.52 1015.21 1013.67 1012.53 1010.66 1009.37 1008.17 1007.62 1007.80 1007.71 1007.59 1007.90 1007.92 1008.29 1008.48 1008.45 1009.17 1009.52 1010.73 1011.45 1012.13 1012.59 1013.35 1013.90 1014.45 1014.76 1015.08 1015.39 1015.71 1015.84 1016.15 1016.50 1016.68 1017.06 1017.45 1017.69 1018.08 1018.42 1018.65 1018.95 1019.31 1019.61 1019.81 1020.06 1020.34 1020.51
1014.74 1014.85 1015.34 1015.13 1013.79 1012.90 1011.54 1009.99 1008.89 1008.36 1007.64 1007.54 1007.42 1007.74 1007.71 1007.12 1007.51 1008.13 1008.58 1009.23 1009.87 1010.79 1011.54 1012.18 1012.70 1013.31 1013.89 1014.48 1014.80 1015.22 1015.49 1015.84 1015.95 1016.32 1016.82 1017.01 1017.35 1017.68 1018.07 1018.53 1018.91 1019.13 1019.36 1019.63 1019.98 1020.21 1020.39 1020.72 1020.88
1014.80 1015.36 1015.63 1014.63 1012.90 1012.03 1011.15 1009.99 1009.00 1008.60 1007.72 1007.41 1007.20 1007.75 1007.93 1007.57 1007.32 1008.25 1008.94 1009.36 1009.70 1010.91 1011.66 1012.36 1012.81 1013.26 1013.85 1014.56 1014.91 1015.33 1015.60 1015.84 1016.12 1016.45 1016.98 1017.28 1017.64 1018.03 1018.47 1018.92 1019.26 1019.46 1019.74 1019.97 1020.34 1020.60 1020.77 1021.05 1021.20
1015.09 1015.30 1015.68 1013.88 1012.54 1011.64 1010.57 1009.68 1008.98 1008.53 1007.95 1007.19 1007.34 1007.83 1008.03 1007.91 1007.75 1008.35 1009.22 1009.78 1010.20 1010.97 1011.77 1012.49 1012.95 1013.39 1013.93 1014.53 1014.91 1015.37 1015.67 1015.94 1016.36 1016.64 1017.07 1017.50 1018.00 1018.44 1018.84 1019.19 1019.54 1019.76 1019.98 1020.28 1020.64 1020.95 1021.19 1021.37 1021.57
1015.30 1015.23 1013.81 1012.87 1012.11 1011.48 1010.47 1009.57 1008.85 1008.35 1007.85 1007.26 1006.98 1007.86 1008.36 1008.41 1008.19 1008.58 1009.36 1010.11 1010.62 1011.06 1011.80 1012.59 1013.09 1013.60 1014.08 1014.62 1014.96 1015.40 1015.76 1016.15 1016.59 1016.90 1017.34 1017.88 1018.36 1018.74 1019.11 1019.50 1019.81 1020.04 1020.25 1020.65 1020.97 1021.24 1021.55 1021.78 1022.05
1015.41 1014.94 1013.04 1011.99 1011.54 1010.74 1009.77 1009.19 1008.08 1008.02 1007.21 1006.73 1006.70 1007.17 1008.03 1008.18 1008.46 1008.74 1009.49 1010.46 1010.83 1011.45 1011.95 1012.47 1013.22 1013.78 1014.36 1014.80 1015.08 1015.52 1015.96 1016.39 1016.85 1017.26 1017.74 1018.34 1018.71 1019.05 1019.41 1019.81 1020.10 1020.32 1020.60 1021.01 1021.31 1021.58 1021.86 1022.21 1022.51
1015.55 1014.60 1011.97 1011.28 1011.28 1010.48 1009.60 1009.10 1008.11 1007.40 1007.09 1006.53 1006.17 1006.06 1005.77 1007.41 1008.45 1009.07 1009.58 1010.47 1010.96 1011.63 1011.99 1012.29 1013.05 1013.80 1014.48 1014.92 1015.24 1015.81 1016.21 1016.60 1017.12 1017.67 1018.15 1018.65 1019.11 1019.47 1019.77 1020.18 1020.43 1020.67 1020.90 1021.26 1021.63 1021.97 1022.36 1022.66 1022.91
1015.67 1014.21 1011.37 1011.34 1011.08 1010.85 1010.10 1009.67 1008.83 1007.98 1007.32 1006.71 1006.32 1005.88 1006.29 1007.25 1008.17 1008.58 1009.02 1009.86 1010.67 1011.27 1011.79 1012.17 1012.86 1013.59 1014.42 1014.99 1015.44 1016.04 1016.49 1016.83 1017.36 1017.98 1018.49 1018.89 1019.38 1019.78 1020.07 1020.45 1020.71 1020.96 1021.19 1021.43 1021.77 1022.41 1022.74 1023.10 1023.53
1015.53 1013.55 1012.36 1011.67 1011.38 1011.26 1010.93 1009.87 1009.47 1008.51 1007.60 1006.96 1006.79 1006.27 1006.66 1007.11 1007.81 1008.20 1008.70 1009.08 1009.79 1011.03 1011.75 1012.18 1012.71 1013.43 1014.19 1015.00 1015.59 1016.19 1016.59 1017.02 1017.60 1018.16 1018.57 1019.08 1019.60 1020.02 1020.49 1020.88 1021.16 1021.34 1021.67 1021.90 1022.14 1022.94 1023.19 1023.49 1023.88
1016.22 1014.28 1013.72 1012.93 1012.14 1011.66 1011.45 1011.06 1009.67 1009.25 1007.97 1007.37 1006.66 1005.80 1006.28 1007.01 1007.71 1007.99 1008.34 1009.05 1010.04 1010.89 1011.26 1011.99 1012.63 1013.35 1014.10 1014.92 1015.62 1016.04 1016.53 1017.07 1017.71 1018.16 1018.61 1019.07 1019.58 1020.17 1020.67 1021.20 1021.55 1021.73 1022.05 1022.37 1022.76 1023.16 1023.50 1023.84 1024.28
1016.61 1015.31 1014.54 1013.81 1013.07 1012.37 1011.97 1011.22 1010.85 1009.20 1008.19 1007.53 1007.04 1006.42 1006.09 1006.49 1007.29 1008.10 1008.29 1008.94 1009.81 1010.79 1011.37 1011.96 1012.68 1013.29 1014.10 1014.81 1015.51 1016.13 1016.49 1017.05 1017.69 1018.10 1018.58 1018.99 1019.59 1020.24 1020.84 1021.39 1021.78 1022.09 1022.39 1022.69 1023.26 1023.39 1023.71 1024.19 1024.62
1016.75 1015.83 1015.03 1014.23 1013.41 1012.58 1012.20 1011.75 1011.44 1009.03 1008.43 1007.84 1006.88 1006.54 1006.14 1006.54 1007.01 1007.74 1008.47 1008.88 1009.56 1010.41 1011.30 1011.80 1012.60 1013.16 1013.95 1014.71 1015.42 1015.99 1016.50 1017.12 1017.71 1018.09 1018.52 1018.98 1019.60 1020.36 1020.83 1021.49 1021.86 1022.29 1022.51 1022.90 1023.23 1023.51 1023.96 1024.53 1024.88
1017.23 1016.59 1015.41 1014.27 1013.38 1012.42 1011.92 1010.64 1009.30 1009.53 1008.95 1008.56 1007.69 1007.23 1006.54 1006.72 1007.06 1007.16 1007.60 1008.38 1009.05 1009.90 1011.08 1011.79 1012.53 1013.24 1013.85 1014.57 1015.12 1015.79 1016.43 1017.06 1017.68 1018.03 1018.50 1018.81 1019.62 1020.23 1020.89 1021.51 1022.00 1022.32 1022.58 1023.08 1023.22 1023.78 1024.32 1024.84 1025.13
1017.78 1016.99 1015.88 1014.05 1013.23 1012.28 1012.29 1009.47 1008.89 1008.84 1008.71 1008.45 1007.98 1007.60 1007.25 1006.92 1007.07 1007.37 1007.63 1008.26 1009.13 1009.83 1010.85 1011.89 1012.56 1013.22 1013.81 1014.46 1014.91 1015.61 1016.37 1016.89 1017.55 1017.90 1018.36 1018.72 1019.43 1020.24 1020.87 1021.36 1021.93 1022.33 1022.69 1022.91 1023.43 1024.05 1024.68 1025.17 1025.56
1018.60 1017.92 1016.66 1015.18 1013.55 1012.60 1011.46 1009.95 1009.14 1009.05 1008.67 1008.40 1008.26 1007.98 1007.84 1007.62 1007.42 1007.45 1007.80 1008.22 1008.87 1009.36 1010.29 1011.61 1012.33 1012.98 1013.74 1014.31 1014.79 1015.42 1016.33 1016.78 1017.33 1017.81 1018.32 1018.70 1019.33 1020.06 1020.66 1021.26 1021.86 1022.32 1022.71 1023.06 1023.46 1024.27 1024.56 1025.36 1025.83
1020.23 1019.28 1017.83 1016.52 1014.64 1013.26 1012.00 1010.61 1009.74 1009.28 1009.01 1008.86 1009.08 1008.88 1008.89 1008.95 1009.14 1008.89 1008.20 1008.21 1008.79 1009.26 1009.75 1010.76 1012.15 1012.89 1013.69 1014.26 1014.91 1015.57 1016.30 1016.82 1017.24 1017.69 1018.22 1018.61 1019.19 1019.88 1020.43 1021.12 1021.74 1022.14 1022.66 1023.29 1023.69 1024.26 1024.78 1025.34 1025.83
1021.37 1020.24 1019.11 1017.38 1015.71 1014.52 1012.90 1011.70 1010.52 1009.83 1010.11 1010.29 1010.60 1011.06 1011.01 1011.11 1011.43 1010.65 1010.15 1009.33 1009.02 1009.65 1009.77 1010.48 1011.40 1012.48 1013.34 1014.04 1014.60 1015.27 1015.76 1016.46 1017.05 1017.51 1017.99 1018.47 1019.08 1019.75 1020.28 1020.93 1021.50 1021.93 1022.56 1023.08 1023.48 1024.22 1024.85 1025.59 1025.90
1021.56 1020.90 1019.93 1017.91 1016.67 1015.78 1013.70 1012.81 1011.70 1011.40 1012.78 1013.76 1014.20 1014.40 1014.39 1013.95 1013.32 1012.92 1012.17 1011.69 1010.87 1010.08 1010.21 1010.37 1010.92 1011.79 1012.59 1013.34 1013.81 1014.40 1015.08 1015.95 1016.42 1017.11 1017.76 1018.20 1018.84 1019.43 1019.97 1020.59 1021.25 1021.67 1022.39 1023.01 1023.51 1024.06 1024.90 1025.43 1025.72
1022.11 1021.72 1021.22 1020.50 1018.41 1015.71 1014.94 1013.65 1012.43 1012.83 1014.71 1015.72 1017.10 1017.63 1017.30 1017.15 1016.43 1015.62 1014.64 1013.86 1013.15 1012.31 1011.59 1010.33 1010.51 1011.15 1012.08 1012.81 1013.59 1014.41 1015.28 1016.27 1016.97 1017.30 1017.58 1017.87 1018.37 1019.07 1019.59 1020.17 1020.93 1021.54 1021.97 1022.77 1023.26 1023.81 1024.39 1025.25 1025.74
1022.67 1022.22 1022.06 1021.20 1020.22 1017.85 1016.29 1015.18 1015.05 1016.39 1017.57 1018.64 1019.81 1019.89 1019.92 1019.35 1018.68 1017.95 1016.98 1015.98 1015.10 1014.28 1013.16 1012.24 1010.65 1010.74 1011.46 1012.35 1013.05 1013.40 1014.03 1014.83 1015.43 1016.17 1016.84 1017.51 1017.92 1018.73 1019.33 1019.93 1020.65 1021.21 1021.74 1022.51 1022.94 1023.39 1024.02 1024.62 1025.25
1023.72 1023.22 1022.65 1022.06 1021.40 1020.01 1017.47 1017.83 1019.67 1019.63 1020.05 1021.74 1021.84 1021.81 1021.82 1021.43 1020.82 1019.85 1019.08 1018.22 1017.10 1015.97 1014.73 1013.95 1012.80 1011.28 1010.63 1011.52 1012.26 1012.94 1013.56 1014.16 1014.97 1016.12 1016.85 1017.44 1017.89 1018.38 1019.06 1019.54 1020.24 1020.90 1021.45 1022.09 1022.70 1023.17 1023.74 1024.29 1024.98
1025.08 1023.58 1023.15 1022.85 1022.76 1021.40 1019.07 1019.01 1022.53 1023.77 1024.64 1023.93 1023.19 1023.70 1023.32 1022.78 1022.07 1021.34 1020.72 1019.65 1018.22 1017.19 1016.12 1014.89 1013.86 1012.07 1011.15 1010.54 1011.37 1012.18 1012.72 1013.52 1014.48 1015.56 1016.42 1017.05 1017.64 1018.18 1018.69 1019.29 1019.78 1020.36 1020.94 1021.63 1022.23 1022.71 1023.31 1023.89 1024.39
1026.49 1025.96 1026.41 1025.44 1024.33 1022.27 1020.41 1021.64 1025.65 1026.14 1026.41 1025.99 1025.34 1025.07 1024.90 1024.09 1023.31 1022.61 1021.74 1020.67 1019.49 1018.35 1017.20 1016.41 1015.75 1013.60 1013.32 1011.34 1009.92 1011.28 1012.07 1012.78 1013.67 1014.46 1015.34 1016.35 1017.18 1017.76 1018.19 1018.64 1019.44 1019.93 1020.40 1020.97 1021.58 1022.26 1022.82 1023.39 1023.97
1029.50 1030.08 1030.00 1029.24 1027.05 1024.34 1022.96 1024.83 1027.20 1027.35 1027.22 1026.72 1026.37 1026.72 1025.20 1024.89 1024.42 1023.80 1022.98 1022.32 1020.71 1019.87 1018.75 1017.51 1015.46 1014.84 1015.60 1013.04 1011.73 1010.61 1011.71 1012.40 1013.21 1013.86 1014.49 1015.41 1016.17 1016.84 1017.42 1018.01 1018.79 1019.55 1020.17 1020.70 1021.21 1021.83 1022.45 1022.91 1023.52
1031.46 1032.34 1032.41 1031.30 1029.13 1027.43 1026.92 1027.31 1027.03 1027.90 1027.48 1027.52 1027.17 1026.90 1025.93 1026.01 1025.23 1024.69 1023.90 1022.36 1021.98 1020.75 1020.63 1019.07 1018.40 1017.19 1015.01 1013.82 1012.42 1012.13 1011.37 1012.12 1012.64 1013.47 1013.94 1014.69 1015.52 1016.40 1017.19 1017.66 1018.46 1019.11 1019.71 1020.31 1020.86 1021.47 1022.00 1022.60 1023.20
1033.26 1033.97 1034.16 1033.19 1031.63 1030.06 1029.69 1029.45 1029.81 1029.04 1028.94 1028.80 1028.08 1027.53 1027.25 1026.27 1026.09 1025.74 1025.29 1024.64 1023.02 1022.40 1021.20 1020.53 1019.40 1018.81 1017.40 1016.28 1014.02 1014.19 1013.88 1011.71 1011.92 1012.81 1013.55 1014.25 1014.96 1015.73 1016.65 1017.40 1018.06 1018.72 1019.26 1019.85 1020.50 1021.20 1021.71 1022.29 1022.89
1034.93 1035.80 1036.28 1035.80 1034.21 1032.85 1032.00 1032.11 1031.71 1030.94 1030.05 1029.34 1029.04 1028.45 1027.89 1027.54 1026.93 1026.80 1026.20 1025.08 1024.00 1023.46 1022.46 1021.72 1020.71 1019.37 1017.22 1016.63 1015.58 1016.70 1013.77 1012.92 1012.26 1011.80 1012.79 1013.59 1014.26 1014.98 1015.91 1016.78 1017.59 1018.28 1018.87 1019.48 1020.07 1020.63 1021.27 1021.96 1022.53
1036.41 1037.34 1037.79 1037.72 1036.60 1035.13 1034.18 1033.88 1032.71 1031.76 1030.95 1030.53 1030.19 1029.81 1029.13 1028.18 1027.75 1027.68 1026.72 1025.66 1024.57 1024.04 1022.70 1023.55 1021.51 1021.05 1019.81 1019.43 1017.12 1017.87 1016.64 1012.19 1012.27 1013.28 1011.94 1013.17 1013.80 1014.49 1015.21 1016.22 1017.06 1017.74 1018.43 1019.00 1019.57 1020.11 1020.71 1021.36 1022.03
Wind_Speed
8 5 2 4 4 4 6 10 3 4 3 5 1 6 13 9 8 8 1 12 23 19 17 18 22 21 21 20 20 18 18 19 18 16 20 22 22 23 21 19 20 23 23 23 25 23 22 21 20
6 4 4 2 5 5 6 5 11 17 9 0 5 1 1 5 2 6 9 15 22 19 17 17 22 22 22 20 20 19 18 18 18 17 19 21 24 23 21 21 22 22 23 22 22 21 21 22 20
7 3 3 4 5 12 8 7 16 7 7 4 2 3 6 6 4 12 11 20 22 18 16 17 23 22 22 20 20 20 18 17 18 17 19 23 23 22 21 22 22 22 22 21 20 20 19 21 19
2 4 3 3 16 7 8 6 8 6 8 9 6 3 2 6 14 9 19 21 20 17 16 20 23 23 22 20 20 19 19 18 18 20 20 22 22 22 22 22 21 20 20 20 20 18 19 21 19
1 3 3 6 12 4 8 6 1 3 4 3 5 7 1 2 13 21 20 19 22 17 15 17 24 24 23 21 21 20 19 19 19 21 23 22 21 21 22 21 20 20 19 20 20 20 20 19 19
3 4 3 14 12 9 10 7 7 6 7 9 4 8 7 8 20 20 17 17 19 18 17 17 22 23 23 22 21 20 19 20 21 21 22 22 21 21 21 20 20 20 19 20 19 20 20 20 19
4 4 9 7 3 7 7 6 8 6 6 7 5 8 1 13 17 18 17 16 16 17 17 15 16 18 21 21 20 19 21 21 21 22 21 20 19 19 20 19 20 19 18 19 21 22 20 20 20
3 4 5 9 12 6 8 8 4 14 18 5 10 8 8 11 17 17 16 16 17 16 17 16 15 15 14 14 19 20 21 21 21 21 20 16 15 16 18 17 19 19 17 18 21 22 20 20 19
2 8 19 20 5 4 5 5 5 3 5 4 5 9 12 21 19 17 19 17 16 14 16 16 16 14 13 13 14 17 19 19 19 17 17 14 8 11 12 14 16 16 15 17 21 21 18 18 16
7 14 25 11 7 11 10 6 7 5 4 4 3 2 23 25 24 24 22 20 19 18 17 16 16 15 13 11 12 12 12 11 11 11 10 8 10 9 11 12 14 15 13 12 17 19 18 13 6
5 22 21 18 9 12 10 12 3 6 9 7 8 19 25 26 23 23 25 23 20 19 13 16 16 16 14 12 9 6 6 7 8 10 10 10 7 9 7 6 5 6 6 3 7 7 6 8 6
8 17 13 14 18 16 11 13 15 6 8 5 10 25 26 25 22 22 24 23 20 18 18 17 17 16 14 11 8 8 7 8 8 9 11 8 7 8 6 5 4 5 3 5 5 4 8 8 8
8 10 10 12 16 17 15 15 9 17 20 13 10 14 24 24 22 17 19 19 21 19 16 16 17 16 13 13 9 8 9 8 9 10 11 9 10 8 6 6 4 4 4 4 5 6 8 9 8
6 14 13 9 14 16 17 18 13 6 9 11 7 12 20 22 21 19 19 20 20 19 16 18 18 16 15 12 13 9 9 8 8 9 8 12 9 8 7 6 6 4 4 4 5 9 8 7 7
7 11 12 12 12 11 13 19 29 13 16 11 10 6 13 17 16 21 22 23 21 19 17 19 19 16 16 14 13 10 9 8 7 8 10 12 10 10 7 6 5 4 5 6 8 7 7 6 5
6 5 3 2 5 11 10 25 16 13 15 13 10 6 6 13 19 17 18 19 19 19 19 17 14 16 15 14 12 10 8 8 6 8 7 12 12 10 7 5 5 5 4 6 7 7 6 6 6
4 5 8 8 11 7 17 15 17 15 7 10 8 6 5 8 11 13 17 18 19 21 22 18 16 17 15 13 10 11 9 9 7 8 8 11 12 10 9 6 5 7 6 6 7 3 7 7 4
4 6 6 8 7 7 11 14 15 8 15 7 7 6 6 3 1 5 9 14 19 19 22 21 15 16 15 10 8 6 6 7 8 8 9 12 10 11 10 7 8 8 7 6 5 7 4 5 5
9 6 6 5 7 10 7 9 12 13 7 7 6 9 7 8 11 14 13 7 17 16 21 22 21 18 13 11 12 10 11 10 9 8 12 13 11 11 11 8 9 8 9 9 9 6 7 3 4
10 4 5 12 8 7 7 10 9 10 7 16 17 17 17 15 16 17 16 14 12 15 18 21 22 21 16 13 12 11 11 8 9 8 10 12 12 12 11 11 9 10 9 10 9 8 4 3 4
10 3 8 7 15 9 6 9 6 10 21 20 21 18 18 18 17 17 18 15 13 12 11 19 21 22 18 17 11 8 7 5 3 7 8 10 13 12 11 13 10 10 10 9 8 7 7 7 2
8 13 15 12 6 3 6 3 6 10 18 23 20 20 18 19 18 16 17 16 15 14 12 13 9 21 19 17 15 19 14 15 12 10 9 9 12 11 11 12 11 11 9 10 8 7 5 5 4
6 19 16 10 3 2 3 2 11 13 17 22 19 19 18 17 16 16 16 16 15 15 13 11 8 6 21 20 19 15 16 13 9 7 10 10 9 12 12 13 12 11 8 9 9 8 8 4 4
17 9 6 2 3 2 8 4 9 11 15 16 18 18 19 18 17 16 15 15 15 14 15 14 13 9 10 23 22 21 20 17 13 12 11 10 9 9 12 12 12 11 10 11 9 8 9 7 5
14 7 6 6 2 6 4 14 4 8 11 13 15 16 16 16 16 16 18 17 16 18 18 15 14 13 12 8 26 24 20 20 19 18 14 14 10 9 13 14 12 10 11 11 10 10 9 9 7
7 4 3 3 3 4 12 7 5 6 8 9 10 11 17 17 15 16 17 15 15 16 17 18 20 16 12 15 11 21 18 13 14 17 15 13 12 12 13 13 13 12 10 10 9 7 7 7 6
9 6 4 2 4 3 3 3 5 12 14 13 15 16 17 17 16 17 16 15 15 17 16 17 16 15 17 17 12 11 19 16 15 17 16 14 13 11 12 13 13 12 12 12 11 8 9 7 5
6 3 5 5 5 4 2 4 7 14 15 14 15 16 15 16 17 16 14 13 13 12 15 15 15 15 12 12 13 12 9 7 18 17 16 17 15 14 14 14 14 13 12 12 12 8 7 9 5
7 7 5 2 2 2 2 1 6 9 12 14 13 14 14 15 14 14 14 14 15 14 15 15 16 17 17 15 15 12 13 8 7 17 17 18 17 16 15 15 14 14 13 12 12 10 9 10 8
5 1 5 5 7 2 1 3 4 8 10 12 12 12 12 12 13 13 14 15 16 16 18 15 16 15 14 13 11 13 13 13 13 15 14 18 17 17 17 16 14 14 14 13 13 12 11 12 10
Wind_Direction
337 315 2 35 91 74 215 236 208 220 214 215 58 149 172 149 166 211 316 141 131 144 155 153 153 152 148 145 136 130 126 125 124 122 124 134 129 129 124 121 112 108 104 99 97 97 93 97 100
344 307 44 77 126 173 240 224 203 223 204 136 114 41 179 203 116 123 102 141 136 144 153 153 152 152 149 143 138 132 132 129 125 124 122 132 127 126 124 118 114 110 106 102 99 98 93 99 98
306 240 102 152 202 213 204 205 218 238 218 213 270 113 176 182 107 152 135 143 136 146 151 153 150 151 147 141 137 135 138 135 133 126 127 125 125 123 120 118 114 109 110 108 102 97 95 95 96
338 11 7 199 231 264 209 209 210 236 290 194 191 158 239 210 150 146 142 142 138 143 149 151 151 148 144 142 138 142 141 143 143 132 130 129 124 122 117 117 115 112 111 108 101 96 101 101 96
10 68 247 250 237 233 235 249 185 216 219 207 146 182 237 65 127 135 145 148 142 146 149 151 151 147 144 142 143 146 144 136 141 133 131 128 123 124 121 121 118 117 114 108 103 102 106 103 97
229 122 224 242 229 213 246 226 280 193 232 285 112 134 175 131 133 143 147 149 146 147 150 152 151 146 145 145 144 146 142 134 136 133 130 125 126 127 125 127 124 122 118 110 104 112 106 101 98
248 160 237 263 252 228 219 233 219 240 251 259 168 138 133 150 146 143 143 144 146 146 151 151 150 148 146 147 142 140 140 137 132 129 124 125 129 128 128 130 129 125 120 113 107 114 109 107 100
281 271 231 228 235 250 212 238 186 216 255 273 164 169 165 172 148 139 133 145 147 150 155 153 150 147 146 148 140 137 136 135 133 129 123 124 125 124 126 131 131 128 125 118 113 116 110 106 99
278 244 245 230 165 245 294 210 231 239 249 215 200 166 163 144 138 135 141 152 154 160 161 156 153 151 147 146 138 135 134 130 125 124 122 120 119 118 118 131 130 128 130 126 121 119 109 110 103
216 231 250 256 208 253 284 282 294 267 268 279 244 91 137 141 150 153 159 161 165 166 165 158 154 148 147 145 138 139 134 134 133 134 128 126 125 128 129 130 131 140 136 132 118 108 111 109 97
245 239 250 280 326 330 312 305 291 291 263 219 227 151 152 155 159 161 165 167 167 165 161 159 152 148 149 149 142 142 137 134 134 136 137 135 134 130 126 128 120 129 102 88 94 90 115 115 106
279 265 277 291 297 297 303 327 301 245 254 344 248 167 160 164 167 167 166 164 163 170 163 158 154 151 151 150 150 144 143 142 144 147 141 138 138 130 137 131 126 119 118 105 88 91 114 107 103
252 287 292 289 281 277 286 282 282 290 286 295 302 204 169 167 168 171 166 161 160 165 162 156 156 156 150 155 149 149 148 147 146 148 148 145 140 142 134 137 130 126 116 120 101 115 119 115 116
301 308 294 290 288 282 265 261 284 280 318 305 272 217 172 173 169 163 166 165 166 160 163 161 163 161 154 155 157 156 153 148 148 148 150 149 139 143 140 139 145 129 136 127 130 123 123 121 124
270 296 296 278 262 263 282 257 246 255 268 274 286 267 189 183 171 170 169 172 166 163 158 168 169 162 158 156 158 158 158 152 150 155 160 140 138 143 143 147 141 144 131 129 105 101 106 106 111
306 270 264 283 275 232 221 249 243 217 235 250 238 257 249 195 180 177 172 170 170 161 161 166 166 163 157 160 160 163 150 158 155 155 156 153 145 145 153 149 139 138 137 119 117 122 111 118 127
258 270 280 297 276 294 210 243 254 263 245 244 218 229 263 233 191 185 177 171 171 166 163 164 165 162 162 162 162 164 145 161 160 159 163 162 156 153 153 160 141 139 133 124 131 107 125 126 118
311 300 299 304 309 333 311 244 259 258 248 243 233 214 236 234 49 317 206 177 166 171 165 163 162 165 164 154 155 148 137 151 164 163 168 166 163 162 156 156 151 144 135 131 122 129 113 133 140
325 319 290 272 288 319 279 305 270 255 260 304 308 49 39 53 9 16 4 334 159 178 170 169 165 168 163 163 162 167 168 164 167 168 168 170 165 162 160 156 151 144 147 151 147 131 126 96 116
331 312 339 293 348 337 304 319 275 258 66 45 36 30 16 9 16 10 10 11 20 180 181 176 175 172 173 173 174 176 170 169 164 163 163 165 160 161 158 156 157 153 149 152 154 143 127 116 162
324 334 344 310 321 267 245 266 220 80 46 39 28 26 20 10 5 5 4 7 8 12 335 183 178 174 175 176 165 156 131 99 102 158 162 167 161 159 154 157 157 155 152 160 160 153 141 158 181
316 350 323 308 2 290 6 275 84 48 42 20 13 15 8 2 1 6 3 357 4 356 344 341 222 179 177 172 171 169 168 168 182 179 166 163 162 156 154 154 158 157 155 162 164 158 152 142 157
298 311 285 280 204 312 246 234 360 6 11 2 3 4 4 0 360 360 1 352 355 357 348 333 326 265 174 174 176 174 174 182 165 153 151 161 161 160 165 163 161 161 161 164 164 168 159 150 141
326 308 315 187 134 354 233 221 25 17 343 347 9 1 2 359 358 360 360 354 358 0 360 348 340 354 251 176 178 182 179 177 167 161 167 172 170 167 169 169 171 168 165 166 169 169 168 168 148
1 20 1 15 24 212 86 66 65 11 7 7 6 1 0 3 3 0 360 358 359 2 359 345 340 357 347 296 174 183 183 177 179 171 172 171 172 175 178 172 174 176 174 172 169 174 172 170 173
336 95 101 195 341 310 31 69 37 34 18 13 19 6 16 8 5 5 356 358 3 0 1 352 353 355 1 359 308 176 182 184 181 182 174 178 181 182 175 176 175 175 170 172 170 173 176 168 169
316 29 225 250 221 273 36 32 67 22 28 15 18 11 17 5 6 1 360 2 360 6 354 356 351 359 5 353 353 348 181 179 182 184 177 180 178 176 174 176 174 170 172 173 172 173 170 166 171
117 292 19 356 10 40 59 55 348 354 11 13 9 15 5 13 6 2 360 2 9 6 358 356 1 352 10 342 8 3 294 205 181 179 178 179 178 174 171 175 176 175 174 172 172 174 171 172 177
349 5 9 151 316 338 339 329 344 345 358 7 8 3 7 6 5 358 358 1 6 0 7 359 4 359 358 1 12 332 351 360 349 179 180 183 176 174 174 179 177 179 180 178 179 178 173 182 180
149 192 128 96 322 306 215 276 321 346 4 360 356 355 359 8 7 355 355 2 9 7 13 1 4 357 6 350 360 351 348 20 48 357 201 182 177 175 175 178 182 185 186 182 182 179 184 184 181